1500714000.78,6623,22.38,74388.8,23.95,-9.93,-16.31,0,*47
1500714002.0,6624,22.44,74392.5,23.93,-8.41,-14.33,0,*48
1500714003.2,6625,22.44,74394.3,23.95,-8.85,-14.29,0,*4C
1500714004.46,6626,22.44,74392.3,23.97,-11.63,-16.89,0,*75
1500714005.69,6627,22.44,74390.5,23.95,-10.71,-15.53,0,*70
1500714006.9,6628,22.44,74394.5,23.95,-9.41,-13.69,0,*4B
1500714008.16,6629,22.44,74392.8,23.97,-9.83,-13.79,0,*47
1500714009.39,6630,22.38,74390.0,23.99,-11.01,-14.79,0,*75
1500714010.58,6631,22.44,74392.3,23.99,-10.31,-13.93,0,*75
1500714011.85,6632,22.44,74396.5,24.05,-9.49,-12.11,0,*48
1500714013.07,6633,22.44,74388.3,24.05,-8.85,-10.85,0,*47
1500714014.28,6634,22.44,74390.5,24.09,-8.37,-9.97,0,*7E
1500714015.52,6635,22.38,74386.5,24.11,-7.77,-9.15,0,*77
1500714016.73,6636,22.44,74390.8,24.17,-7.83,-9.37,0,*79
1500714017.95,6637,22.44,74388.0,24.17,-8.11,-9.71,0,*7E
1500714019.13,6638,22.44,74392.3,24.21,-8.33,-9.75,0,*70
1500714020.37,6639,22.44,74394.8,24.23,-8.81,-9.93,0,*72
1500714021.56,6640,22.44,74388.8,24.29,-9.75,-11.19,0,*47
1500714022.81,6641,22.44,74394.3,24.29,-11.37,-12.61,0,*75
1500714024.08,6642,22.44,74390.8,24.31,-10.63,-11.97,0,*75
1500714025.32,6643,22.44,74394.0,24.31,-11.33,-12.47,0,*7E
1500714026.54,6644,22.44,74390.5,24.33,-12.47,-13.33,0,*79
1500714027.76,6645,22.44,74388.8,24.33,-13.55,-14.47,0,*7E
1500714029.03,6646,22.44,74388.5,24.31,-13.01,-13.83,0,*71
1500714030.27,6647,22.44,74388.5,24.31,-13.19,-13.97,0,*7C
1500714031.51,6648,22.44,74388.0,24.31,-12.71,-13.47,0,*71
1500714032.77,6649,22.44,74394.0,24.29,-14.51,-15.35,0,*7E
1500714033.96,6650,22.44,74394.0,24.29,-15.63,-16.83,0,*78
1500714035.21,6651,22.44,74392.0,24.29,-14.79,-15.89,0,*7A
1500714036.4,6652,22.44,74392.0,24.25,-14.69,-16.03,0,*75
1500714037.59,6653,22.44,74392.5,24.25,-15.07,-16.55,0,*7E
1500714038.83,6654,22.44,74392.5,24.25,-14.05,-15.29,0,*72
1500714040.05,6655,22.44,74394.3,24.23,-14.89,-16.03,0,*7A
1500714041.33,6656,22.44,74388.5,24.23,-14.83,-16.17,0,*76
1500714042.54,6657,22.44,74392.5,24.23,-14.69,-15.71,0,*70
1500714043.81,6658,22.44,74388.0,24.23,-15.43,-16.51,0,*77
1500714045.04,6659,22.44,74388.8,24.21,-16.37,-17.41,0,*74
1500714046.27,6660,22.44,74386.8,24.19,-14.61,-15.75,0,*71
1500714047.49,6661,22.44,74388.3,24.19,-15.75,-16.79,0,*7B
1500714048.74,6662,22.44,74392.0,24.19,-15.81,-16.79,0,*73
1500714049.97,6663,22.44,74388.3,24.17,-13.83,-14.69,0,*7B
1500714051.19,6664,22.44,74390.8,24.17,-13.55,-14.55,0,*78
1500714052.39,6665,22.44,74388.8,24.21,-12.89,-13.73,0,*7F
1500714053.58,6666,22.44,74388.0,24.21,-12.43,-13.23,0,*7F
1500714054.8,6667,22.44,74390.3,24.21,-12.89,-13.87,0,*76
1500714056.02,6668,22.44,74390.8,24.23,-13.73,-14.69,0,*78
1500714057.29,6669,22.44,74388.0,24.23,-14.75,-16.09,0,*7C
1500714058.55,6670,22.44,74388.0,24.23,-14.29,-15.43,0,*70
1500714059.77,6671,22.44,74388.3,24.21,-15.43,-16.75,0,*78
1500714061.02,6672,22.44,74388.8,24.21,-15.01,-16.17,0,*79
1500714062.26,6673,22.44,74392.3,24.19,-13.65,-15.01,0,*73
1500714063.49,6674,22.44,74394.0,24.21,-13.23,-14.55,0,*7D
1500714064.71,6675,22.44,74390.5,24.21,-13.47,-14.97,0,*70
1500714065.97,6676,22.44,74390.0,24.21,-13.61,-14.97,0,*77
1500714067.22,6677,22.44,74388.0,24.19,-13.51,-14.93,0,*7A
1500714068.45,6678,22.44,74392.5,24.23,-13.55,-14.89,0,*73
1500714069.7,6679,22.44,74390.8,24.23,-13.29,-14.61,0,*7F
1500714070.94,6680,22.44,74392.0,24.23,-13.47,-14.83,0,*7D
1500714072.22,6681,22.44,74388.0,24.23,-11.59,-12.71,0,*7A
1500714073.42,6682,22.44,74392.8,24.25,-12.97,-14.23,0,*7F
1500714074.65,6683,22.44,74394.8,24.25,-12.07,-13.19,0,*79
1500714075.9,6684,22.44,74392.5,24.31,-11.45,-12.71,0,*71
1500714077.15,6685,22.44,74390.8,24.31,-11.51,-12.47,0,*70
1500714078.36,6686,22.44,74388.3,24.35,-11.23,-12.25,0,*76
1500714079.58,6687,22.44,74394.8,24.37,-12.15,-13.11,0,*75
1500714080.8,6688,22.44,74394.0,24.37,-11.51,-12.39,0,*72
1500714082.05,6689,22.44,74392.8,24.39,-11.63,-12.47,0,*75
1500714083.27,6690,22.44,74394.0,24.41,-12.15,-12.97,0,*7D
1500714084.51,6691,22.44,74392.3,24.41,-12.71,-13.33,0,*71
1500714085.74,6692,22.44,74392.0,24.41,-12.57,-13.19,0,*7E
1500714086.96,6693,22.44,74392.3,24.43,-12.93,-13.43,0,*7A
1500714088.2,6694,22.44,74396.3,24.43,-12.65,-13.11,0,*73
1500714089.43,6695,22.44,74394.8,24.41,-12.83,-13.01,0,*79
1500714090.63,6696,22.44,74392.0,24.41,-13.11,-13.11,0,*71
1500714091.87,6697,22.44,74394.3,24.43,-13.55,-13.37,0,*76
1500714093.13,6698,22.44,74394.3,24.43,-13.29,-12.57,0,*75
1500714094.34,6699,22.44,74392.3,24.41,-14.69,-13.87,0,*79
1500714095.61,6700,22.44,74392.3,24.39,-12.57,-11.51,0,*75
1500714096.81,6701,22.44,74392.0,24.39,-11.19,-9.97,0,*4E
1500714098.06,6702,22.44,74390.5,24.39,-11.51,-10.53,0,*71
1500714099.28,6703,22.44,74392.3,24.39,-11.15,-10.31,0,*74
1500714100.52,6704,22.44,74390.5,24.41,-12.71,-12.15,0,*79
1500714101.79,6705,22.44,74388.8,24.39,-11.97,-12.11,0,*78
1500714103.01,6706,22.44,74388.8,24.37,-11.41,-11.67,0,*7C
1500714104.24,6707,22.44,74388.5,24.37,-11.37,-11.41,0,*78
1500714105.47,6708,22.44,74386.5,24.33,-9.53,-9.53,0,*72
1500714106.67,6709,22.44,74390.5,24.33,-9.27,-9.61,0,*71
1500714107.86,6710,22.44,74386.3,24.33,-8.45,-8.45,0,*7B
1500714109.09,6711,22.44,74388.8,24.33,-6.93,-7.27,0,*74
1500714110.28,6712,22.44,74388.0,24.33,-6.31,-6.55,0,*7B
1500714111.54,6713,22.44,74392.3,24.35,-5.11,-5.23,0,*7F
1500714112.75,6714,22.44,74388.5,24.37,-5.47,-5.61,0,*7F
1500714113.98,6715,22.44,74392.5,24.37,-7.65,-7.69,0,*76
1500714115.22,6716,22.44,74392.5,24.33,-8.07,-8.07,0,*7D
1500714116.46,6717,22.44,74388.3,24.29,-7.65,-7.77,0,*74
1500714117.7,6718,22.44,74394.5,24.23,-6.27,-6.43,0,*70
1500714118.91,6719,22.44,74394.0,24.21,-6.73,-6.97,0,*7B
1500714120.1,6720,22.44,74394.5,24.17,-6.55,-6.89,0,*7F
1500714121.28,6721,22.44,74394.0,24.13,-6.01,-6.05,0,*7F
1500714122.49,6722,22.44,74394.0,24.07,-6.89,-6.27,0,*79
1500714123.72,6723,22.44,74390.8,24.01,-6.55,-5.55,0,*79
1500714124.93,6724,22.44,74390.0,23.93,-6.31,-4.61,0,*76
1500714126.17,6725,22.44,74388.5,23.89,-4.45,-2.51,0,*78
1500714127.41,6726,22.44,74388.5,23.79,-2.47,-0.41,0,*43
1500714128.6,6727,22.44,74386.5,23.73,-1.33,-1.21,0,*7F
1500714129.81,6728,22.44,74388.5,23.67,-0.73,-1.71,0,*45
1500714131.02,6729,22.44,74384.5,23.57,-2.19,-4.01,0,*7B
1500714132.19,6730,22.44,74386.3,23.49,-0.65,-2.27,0,*47
1500714133.41,6731,22.44,74390.0,23.41,0.59,-1.17,0,*6C
1500714134.66,6732,22.44,74386.0,23.37,1.51,0.13,0,*4F
1500714135.87,6733,22.44,74386.5,23.31,2.91,2.01,0,*76
1500714137.13,6734,22.44,74384.3,23.29,4.05,3.41,0,*76
1500714138.34,6735,22.44,74384.5,23.27,3.89,3.33,0,*7F
1500714139.56,6736,22.44,74386.8,23.25,4.45,3.97,0,*77
1500714140.76,6737,22.44,74384.3,23.23,5.33,4.79,0,*77
1500714141.98,6738,22.44,74384.5,23.21,5.63,5.07,0,*77
1500714143.15,6739,22.44,74384.3,23.19,5.29,4.81,0,*7C
1500714144.33,6740,22.44,74384.5,23.19,5.33,4.85,0,*7D
1500714145.55,6741,22.44,74384.5,23.17,5.49,4.97,0,*7C
1500714146.75,6742,22.44,74386.0,23.15,4.45,4.23,0,*7F
1500714147.95,6743,22.44,74386.0,23.09,4.81,4.75,0,*78
1500714149.15,6744,22.44,74386.3,23.03,4.45,4.57,0,*7D
1500714150.32,6745,22.44,74390.3,23.01,5.41,5.71,0,*7E
1500714151.55,6746,22.44,74386.0,23.03,5.15,5.01,0,*79
1500714152.72,6747,22.44,74388.3,22.97,5.23,4.19,0,*79
1500714153.95,6748,22.44,74386.8,22.93,4.59,2.43,0,*77
1500714155.12,6749,22.44,74390.0,22.89,5.37,2.31,0,*71
1500714156.34,6750,22.44,74390.5,22.87,4.11,1.47,0,*70
1500714157.54,6751,22.44,74388.5,22.83,3.55,1.09,0,*78
1500714158.75,6752,22.44,74386.3,22.79,4.01,1.51,0,*75
1500714160.01,6753,22.44,74388.5,22.73,3.11,1.25,0,*7B
1500714161.21,6754,22.44,74386.3,22.67,2.65,1.37,0,*78
1500714162.42,6755,22.44,74384.5,22.65,4.19,3.81,0,*79
1500714163.61,6756,22.44,74386.0,22.61,4.49,4.53,0,*73
1500714164.81,6757,22.44,74380.5,22.59,4.27,4.59,0,*7B
1500714166.07,6758,22.44,74382.0,22.57,5.73,6.51,0,*70
1500714167.27,6759,22.44,74382.8,22.55,6.29,7.15,0,*7E
1500714168.48,6760,22.44,74380.3,22.53,5.23,5.99,0,*7D
1500714169.73,6761,22.44,74382.5,22.49,4.93,5.85,0,*70
1500714170.93,6762,22.44,74382.3,22.49,6.79,7.59,0,*76
1500714172.11,6763,22.44,74380.0,22.43,7.59,8.27,0,*78
1500714173.29,6764,22.44,74380.8,22.43,7.97,8.61,0,*7F
1500714174.49,6765,22.44,74380.8,22.43,7.19,7.59,0,*7C
1500714175.74,6766,22.44,74384.3,22.41,6.87,7.23,0,*76
1500714176.91,6767,22.44,74384.5,22.39,6.07,6.11,0,*70
1500714178.11,6768,22.44,74386.8,22.35,5.77,5.67,0,*75
1500714179.31,6769,22.44,74384.0,22.31,5.67,5.55,0,*70
1500714180.53,6770,22.44,74384.8,22.27,6.61,6.57,0,*7B
1500714181.78,6771,22.44,74384.5,22.25,5.93,5.73,0,*73
1500714182.97,6772,22.5,74390.8,22.21,7.01,6.83,0,*71
1500714184.16,6773,22.44,74384.0,22.17,6.03,5.63,0,*7B
1500714185.35,6774,22.44,74382.8,22.13,5.85,5.45,0,*71
1500714186.55,6775,22.44,74384.5,22.09,5.15,4.59,0,*7E
1500714187.78,6776,22.44,74390.5,22.03,5.19,4.71,0,*71
1500714189.01,6777,22.44,74386.3,21.99,4.89,4.59,0,*72
1500714190.21,6778,22.44,74386.0,21.91,5.07,4.49,0,*73
1500714191.38,6779,22.44,74386.5,21.89,6.75,6.29,0,*79
1500714192.57,6780,22.44,74384.0,21.87,6.25,5.67,0,*7D
1500714193.74,6781,22.5,74388.8,21.83,5.23,4.49,0,*70
1500714194.94,6782,22.5,74390.8,21.81,5.37,4.33,0,*79
1500714196.11,6783,22.5,74388.0,21.75,5.11,4.19,0,*7F
1500714197.29,6784,22.44,74390.3,21.71,4.85,3.85,0,*72
1500714198.49,6785,22.44,74388.5,21.67,5.93,4.53,0,*7E
1500714199.72,6786,22.44,74390.5,21.67,6.17,4.63,0,*71
1500714200.95,6787,22.5,74392.3,21.63,6.35,4.33,0,*71
1500714202.13,6788,22.44,74390.5,21.59,5.99,3.59,0,*79
1500714203.35,6789,22.44,74388.3,21.57,4.31,1.41,0,*7E
1500714204.61,6790,22.5,74392.0,21.51,4.71,1.47,0,*72
1500714205.81,6791,22.5,74394.3,21.53,3.67,-0.07,0,*59
1500714207.05,6792,22.44,74390.8,21.47,4.53,0.47,0,*46
1500714208.3,6793,22.44,74392.3,21.43,4.79,0.55,0,*48
1500714209.55,6794,22.44,74390.8,21.43,4.67,0.47,0,*43
1500714210.79,6795,22.5,74388.8,21.39,4.27,-0.27,0,*60
1500714212.0,6796,22.5,74394.3,21.35,3.89,-0.77,0,*69
1500714213.21,6797,22.44,74394.5,21.35,4.27,-0.53,0,*6D
1500714214.45,6798,22.44,74388.8,21.29,3.75,-1.35,0,*5E
1500714215.66,6799,22.44,74390.3,21.29,3.59,-1.87,0,*58
1500714216.87,6800,22.5,74394.3,21.25,3.41,-2.19,0,*56
1500714218.1,6801,22.44,74388.3,21.23,3.37,-2.35,0,*5E
1500714219.33,6802,22.44,74388.3,21.23,2.61,-2.59,0,*55
1500714220.57,6803,22.44,74388.8,21.19,3.23,-1.95,0,*59
1500714221.75,6804,22.44,74390.0,21.17,3.55,-1.67,0,*5C
1500714222.94,6805,22.44,74390.5,21.17,2.89,-2.43,0,*58
1500714224.14,6806,22.5,74392.8,21.17,2.77,-2.79,0,*53
1500714225.37,6807,22.44,74388.8,21.17,1.55,-4.81,0,*50
1500714226.56,6808,22.5,74394.3,21.13,0.79,-6.13,0,*6D
1500714227.79,6809,22.44,74392.0,21.11,1.09,-6.47,0,*59
1500714229.04,6810,22.44,74394.0,21.11,0.51,-7.65,0,*6C
1500714230.25,6811,22.5,74394.8,21.07,-2.87,-12.39,0,*43
1500714231.47,6812,22.5,74392.0,21.01,-5.07,-15.29,0,*4F
1500714232.69,6813,22.5,74392.0,20.95,-6.13,-17.69,0,*42
1500714233.87,6814,22.5,74394.5,20.91,-7.19,-18.83,0,*41
1500714235.08,6815,22.44,74390.5,20.91,-7.49,-17.79,0,*4F
1500714236.32,6816,22.44,74392.0,20.85,-6.55,-16.51,0,*4E
1500714237.58,6817,22.5,74392.0,20.89,-5.85,-14.75,0,*49
1500714238.8,6818,22.5,74394.3,20.91,-6.35,-14.97,0,*4B
1500714240.04,6819,22.44,74392.3,20.93,-8.07,-16.51,0,*4F
1500714241.29,6820,22.5,74396.3,20.93,-9.11,-17.07,0,*41
1500714242.5,6821,22.5,74392.5,20.97,-9.75,-17.21,0,*42
1500714243.78,6822,22.44,74392.8,20.99,-10.67,-17.59,0,*7B
1500714244.96,6823,22.44,74392.0,21.01,-9.97,-16.37,0,*44
1500714246.17,6824,22.5,74392.8,21.03,-10.93,-16.89,0,*78
1500714247.41,6825,22.5,74394.8,21.05,-11.07,-16.13,0,*70
1500714248.62,6826,22.44,74392.0,21.05,-10.71,-15.63,0,*77
1500714249.82,6827,22.44,74390.5,21.13,-11.23,-15.95,0,*7E
1500714251.06,6828,22.5,74394.3,21.15,-10.75,-15.11,0,*79
1500714252.29,6829,22.5,74394.0,21.19,-9.45,-13.51,0,*4D
1500714253.51,6830,22.5,74392.8,21.25,-10.01,-13.79,0,*78
1500714254.73,6831,22.44,74390.3,21.29,-9.53,-13.07,0,*43
1500714255.97,6832,22.5,74390.3,21.37,-9.45,-12.65,0,*4D
1500714257.22,6833,22.5,74388.0,21.41,-9.45,-12.35,0,*48
1500714258.45,6834,22.5,74388.0,21.45,-10.75,-13.23,0,*76
1500714259.73,6835,22.5,74390.3,21.51,-11.37,-13.33,0,*74
1500714260.95,6836,22.44,74386.5,21.53,-11.67,-13.11,0,*70
1500714262.21,6837,22.5,74388.0,21.59,-11.97,-12.71,0,*73
1500714263.46,6838,22.5,74388.0,21.61,-11.37,-12.03,0,*78
1500714264.7,6839,22.5,74388.0,21.63,-11.41,-12.83,0,*72
1500714265.91,6840,22.5,74388.5,21.67,-9.93,-11.85,0,*4B
1500714267.11,6841,22.5,74390.5,21.71,-8.97,-10.93,0,*4E
1500714268.35,6842,22.5,74388.5,21.75,-9.37,-11.67,0,*48
1500714269.6,6843,22.5,74392.5,21.81,-9.79,-11.89,0,*48
1500714270.81,6844,22.5,74392.0,21.85,-9.93,-12.21,0,*4E
1500714272.02,6845,22.5,74392.8,21.87,-10.89,-13.19,0,*74
1500714273.21,6846,22.5,74392.3,21.89,-11.45,-13.93,0,*7A
1500714274.44,6847,22.5,74390.8,21.89,-12.25,-14.97,0,*7D
1500714275.67,6848,22.5,74388.5,21.93,-12.71,-15.67,0,*76
1500714276.92,6849,22.5,74388.5,21.93,-11.67,-14.01,0,*72
1500714278.17,6850,22.5,74392.5,21.95,-11.93,-14.19,0,*7E
1500714279.4,6851,22.5,74390.3,21.99,-12.29,-14.29,0,*72
1500714280.66,6852,22.5,74390.3,22.03,-13.37,-15.29,0,*7E
1500714281.91,6853,22.5,74390.5,22.07,-13.11,-14.79,0,*7B
1500714283.17,6854,22.5,74390.8,22.07,-13.79,-15.25,0,*7A
1500714284.39,6855,22.5,74390.3,22.09,-14.29,-15.81,0,*79
1500714285.64,6856,22.5,74390.3,22.11,-14.93,-16.37,0,*7C
1500714286.89,6857,22.5,74384.3,22.11,-13.79,-14.89,0,*79
1500714288.14,6858,22.5,74388.5,22.11,-13.73,-15.01,0,*7D
1500714289.42,6859,22.5,74388.0,22.15,-14.47,-15.57,0,*7B
1500714290.69,6860,22.5,74388.3,22.15,-14.05,-15.25,0,*72
1500714291.88,6861,22.5,74390.0,22.17,-14.61,-15.75,0,*76
1500714293.1,6862,22.5,74386.5,22.17,-14.93,-16.03,0,*7A
1500714294.31,6863,22.5,74384.5,22.19,-14.61,-15.67,0,*79
1500714295.55,6864,22.5,74388.0,22.19,-13.15,-14.01,0,*7B
1500714296.83,6865,22.5,74386.3,22.25,-12.53,-13.33,0,*70
1500714298.06,6866,22.5,74384.3,22.31,-12.97,-13.97,0,*70
1500714299.28,6867,22.5,74388.5,22.31,-15.25,-16.17,0,*72
1500714300.56,6868,22.5,74390.8,22.33,-13.97,-14.75,0,*76
1500714301.81,6869,22.5,74390.5,22.31,-13.61,-14.47,0,*7D
1500714303.04,6870,22.5,74388.5,22.35,-15.29,-16.27,0,*7F
1500714304.26,6871,22.5,74392.3,22.35,-17.11,-18.07,0,*7B
1500714305.5,6872,22.5,74388.5,22.31,-17.03,-17.93,0,*7D
1500714306.7,6873,22.5,74390.5,22.31,-16.93,-17.83,0,*75
1500714307.93,6874,22.5,74390.8,22.31,-17.03,-17.83,0,*7A
1500714309.13,6875,22.5,74394.3,22.31,-17.83,-18.73,0,*73
1500714310.38,6876,22.5,74390.0,22.27,-19.41,-20.15,0,*7C
1500714311.63,6877,22.5,74386.8,22.25,-19.13,-19.85,0,*7B
1500714312.86,6878,22.5,74388.5,22.21,-16.89,-17.35,0,*79
1500714314.11,6879,22.5,74386.8,22.21,-17.07,-17.69,0,*76
1500714315.32,6880,22.5,74386.3,22.17,-17.87,-18.59,0,*71
1500714316.57,6881,22.5,74384.3,22.17,-16.23,-16.69,0,*72
1500714317.79,6882,22.5,74386.3,22.17,-17.45,-18.17,0,*77
1500714319.0,6883,22.5,74384.3,22.17,-18.11,-18.89,0,*7F
1500714320.22,6884,22.5,74386.0,22.15,-17.87,-18.65,0,*78
1500714321.44,6885,22.5,74382.5,22.13,-17.79,-18.45,0,*7C
1500714322.65,6886,22.5,74384.5,22.13,-17.31,-17.97,0,*73
1500714323.94,6887,22.5,74382.5,22.11,-17.41,-18.31,0,*74
1500714325.12,6888,22.5,74380.3,22.09,-18.11,-19.07,0,*7C
1500714326.34,6889,22.5,74384.5,22.09,-17.25,-18.25,0,*74
1500714327.56,6890,22.5,74382.8,22.09,-17.25,-18.17,0,*7D
1500714328.79,6891,22.5,74382.0,22.09,-17.35,-18.31,0,*79
1500714330.05,6892,22.5,74386.0,22.07,-17.45,-18.65,0,*72
1500714331.24,6893,22.5,74384.0,22.05,-17.35,-18.49,0,*78
1500714332.49,6894,22.5,74386.0,22.05,-16.13,-17.17,0,*7E
1500714333.69,6895,22.5,74386.0,22.05,-15.75,-16.75,0,*79
1500714334.93,6896,22.5,74386.0,22.05,-15.01,-15.85,0,*75
1500714336.19,6897,22.5,74384.0,22.07,-13.83,-14.37,0,*72
1500714337.41,6898,22.5,74382.8,22.07,-13.51,-14.33,0,*76
1500714338.63,6899,22.5,74386.0,22.13,-14.97,-15.75,0,*7C
1500714339.88,6900,22.5,74384.8,22.11,-15.15,-15.89,0,*77
1500714341.12,6901,22.5,74388.8,22.13,-15.89,-16.51,0,*77
1500714342.33,6902,22.5,74388.0,22.13,-14.69,-15.39,0,*76
1500714343.55,6903,22.5,74384.8,22.13,-13.43,-14.01,0,*72
1500714344.75,6904,22.5,74388.3,22.13,-12.29,-12.29,0,*74
1500714346.0,6905,22.5,74384.8,22.17,-11.93,-11.73,0,*7F
1500714347.25,6906,22.5,74390.8,22.21,-11.33,-10.93,0,*7C
1500714348.48,6907,22.5,74390.0,22.25,-10.89,-10.19,0,*7B
1500714349.71,6908,22.5,74390.8,22.29,-10.53,-9.57,0,*4D
1500714350.93,6909,22.5,74388.5,22.33,-10.19,-9.23,0,*4A
1500714352.13,6910,22.5,74390.8,22.37,-9.71,-8.71,0,*76
1500714353.35,6911,22.5,74388.8,22.41,-9.79,-9.01,0,*78
1500714354.57,6912,22.5,74390.3,22.47,-10.23,-9.57,0,*49
1500714355.8,6913,22.5,74390.5,22.47,-10.67,-10.49,0,*7F
1500714357.0,6914,22.5,74390.5,22.51,-9.83,-9.71,0,*7E
1500714358.22,6915,22.5,74390.3,22.55,-9.83,-10.09,0,*4C
1500714359.41,6916,22.5,74394.5,22.55,-10.57,-11.19,0,*7E
1500714360.64,6917,22.5,74392.8,22.59,-10.67,-11.15,0,*7C
1500714361.83,6918,22.5,74392.8,22.59,-9.97,-10.35,0,*47
1500714363.05,6919,22.5,74390.5,22.63,-10.09,-10.41,0,*73
1500714364.24,6920,22.5,74390.5,22.63,-9.97,-10.09,0,*4A
1500714365.45,6921,22.5,74390.8,22.67,-9.45,-9.01,0,*70
1500714366.69,6922,22.5,74384.3,22.71,-7.73,-6.63,0,*74
1500714367.9,6923,22.5,74388.8,22.75,-6.51,-5.55,0,*76
1500714369.13,6924,22.5,74390.5,22.77,-6.47,-5.65,0,*77
1500714370.34,6925,22.5,74390.3,22.81,-6.85,-6.31,0,*73
1500714371.59,6926,22.5,74388.0,22.85,-5.69,-5.07,0,*73
1500714372.82,6927,22.5,74388.5,22.87,-4.77,-4.41,0,*7D
1500714374.05,6928,22.5,74390.3,22.89,-5.47,-5.27,0,*7F
1500714375.28,6929,22.5,74390.8,22.95,-6.23,-5.97,0,*79
1500714376.49,6930,22.5,74390.8,22.97,-5.51,-5.69,0,*74
1500714377.73,6931,22.5,74390.3,22.99,-5.69,-6.55,0,*7C
1500714378.97,6932,22.5,74388.8,23.03,-5.03,-6.51,0,*75
1500714380.19,6933,22.5,74390.8,23.05,-5.47,-7.65,0,*74
1500714381.42,6934,22.5,74388.0,23.07,-7.05,-9.71,0,*7E
1500714382.66,6935,22.5,74392.0,23.11,-9.37,-12.25,0,*4C
1500714383.86,6936,22.5,74390.8,23.09,-10.15,-13.51,0,*7C
1500714385.06,6937,22.5,74390.5,23.09,-11.11,-14.23,0,*7A
1500714386.27,6938,22.5,74384.8,23.09,-11.45,-14.29,0,*7E
1500714387.49,6939,22.5,74392.0,23.09,-11.85,-14.29,0,*73
1500714388.72,6940,22.5,74390.8,23.11,-11.97,-14.11,0,*7C
1500714389.96,6941,22.5,74388.3,23.11,-11.97,-13.69,0,*75
1500714391.2,6942,22.5,74390.8,23.11,-11.23,-12.65,0,*74
1500714392.45,6943,22.5,74390.8,23.17,-10.19,-11.51,0,*7F
1500714393.7,6944,22.5,74390.3,23.17,-10.49,-11.73,0,*7D
1500714394.95,6945,22.5,74390.8,23.21,-12.07,-13.11,0,*77
1500714396.2,6946,22.5,74390.3,23.21,-12.65,-13.43,0,*77
1500714397.47,6947,22.5,74390.0,23.21,-12.83,-13.29,0,*72
1500714398.75,6948,22.5,74390.8,23.21,-11.55,-11.85,0,*71
1500714399.97,6949,22.5,74390.0,23.23,-13.61,-13.93,0,*72
1500714401.23,6950,22.5,74388.0,23.25,-12.75,-12.89,0,*72
1500714402.5,6951,22.5,74390.0,23.25,-11.73,-11.63,0,*71
1500714403.73,6952,22.5,74390.8,23.27,-11.29,-11.15,0,*7E
1500714404.94,6953,22.5,74388.5,23.29,-9.89,-9.67,0,*7E
1500714406.17,6954,22.5,74386.0,23.33,-10.15,-10.01,0,*77
1500714407.44,6955,22.5,74388.8,23.33,-11.67,-11.37,0,*76
1500714408.66,6956,22.5,74388.8,23.39,-12.43,-11.85,0,*73
1500714409.92,6957,22.5,74388.0,23.37,-13.69,-12.79,0,*75
1500714411.14,6958,22.5,74392.0,23.39,-12.39,-11.55,0,*7D
1500714412.4,6959,22.5,74388.8,23.37,-13.93,-12.71,0,*76
1500714413.63,6960,22.5,74388.5,23.39,-12.71,-10.97,0,*75
1500714414.87,6961,22.5,74388.0,23.37,-12.07,-9.97,0,*43
1500714416.12,6962,22.5,74390.5,23.39,-11.97,-9.37,0,*4E
1500714417.36,6963,22.5,74390.8,23.41,-10.93,-7.95,0,*43
1500714418.6,6964,22.5,74390.8,23.43,-10.41,-6.93,0,*4E
1500714419.81,6965,22.5,74388.0,23.47,-9.27,-5.65,0,*79
1500714421.08,6966,22.5,74388.5,23.51,-8.81,-5.07,0,*74
1500714422.28,6967,22.5,74388.5,23.53,-7.69,-3.87,0,*70
1500714423.49,6968,22.5,74388.5,23.57,-7.91,-4.21,0,*77
1500714424.68,6969,22.5,74390.3,23.61,-7.83,-4.09,0,*7A
1500714425.86,6970,22.5,74390.8,23.65,-7.53,-3.75,0,*77
1500714427.1,6971,22.5,74390.3,23.67,-7.39,-3.55,0,*7A
1500714428.32,6972,22.5,74388.5,23.69,-6.77,-2.75,0,*7F
1500714429.53,6973,22.5,74388.0,23.75,-7.15,-3.07,0,*72
1500714430.77,6974,22.5,74388.5,23.75,-7.61,-3.07,0,*76
1500714432.0,6975,22.5,74390.0,23.79,-7.01,-2.15,0,*7F
1500714433.23,6976,22.5,74384.0,23.83,-5.69,-1.13,0,*70
1500714434.42,6977,22.5,74388.3,23.87,-5.35,-0.69,0,*40
1500714435.59,6978,22.5,74386.8,23.91,-4.41,0.01,0,*59
1500714436.85,6979,22.5,74386.0,23.93,-5.27,-1.35,0,*70
1500714438.07,6980,22.5,74386.0,23.95,-3.59,-0.15,0,*4C
1500714439.3,6981,22.5,74388.8,23.97,-2.15,0.83,0,*64
1500714440.53,6982,22.5,74386.8,23.99,-2.03,0.47,0,*66
1500714441.74,6983,22.5,74388.0,24.05,-2.19,-0.07,0,*77
1500714442.97,6984,22.5,74384.3,24.09,-2.75,-0.81,0,*48
1500714444.15,6985,22.5,74386.8,24.13,-1.59,-0.33,0,*46
1500714445.41,6986,22.5,74386.5,24.15,-2.03,-1.09,0,*77
1500714446.6,6987,22.5,74386.5,24.17,-0.81,-0.19,0,*7C
1500714447.81,6988,22.5,74388.5,24.21,0.51,0.63,0,*76
1500714448.99,6989,22.5,74386.8,24.25,-0.41,-0.57,0,*75
1500714450.2,6990,22.5,74384.8,24.29,-1.09,-1.63,0,*7A
1500714451.4,6991,22.5,74388.3,24.33,-3.07,-3.67,0,*7A
1500714452.59,6992,22.5,74388.3,24.29,-3.87,-4.53,0,*7A
1500714453.8,6993,22.5,74386.5,24.25,-5.31,-6.01,0,*79
1500714455.04,6994,22.5,74384.5,24.23,-5.51,-5.81,0,*75
1500714456.25,6995,22.5,74384.5,24.19,-6.59,-6.73,0,*78
1500714457.44,6996,22.5,74386.5,24.17,-6.55,-6.51,0,*79
1500714458.65,6997,22.5,74386.0,24.15,-6.31,-6.13,0,*7E
1500714459.87,6998,22.5,74384.3,24.11,-6.47,-6.19,0,*7E
1500714461.08,6999,22.5,74386.0,24.09,-8.93,-8.41,0,*72
1500714462.32,7000,22.5,74388.5,24.01,-8.29,-7.39,0,*73
1500714463.57,7001,22.5,74390.0,23.97,-7.57,-6.39,0,*7D
1500714464.78,7002,22.5,74388.3,23.93,-7.53,-6.43,0,*73
1500714466.01,7003,22.56,74390.8,23.89,-7.39,-6.09,0,*7B
1500714467.22,7004,22.5,74386.0,23.87,-7.35,-6.05,0,*72
1500714468.43,7005,22.5,74390.8,23.87,-5.73,-4.33,0,*74
1500714469.64,7006,22.5,74390.3,23.83,-4.09,-2.75,0,*7B
1500714470.84,7007,22.5,74390.0,23.79,-1.75,-0.65,0,*42
1500714472.06,7008,22.5,74388.5,23.87,0.29,1.17,0,*40
1500714473.28,7009,22.5,74388.8,23.91,1.43,1.89,0,*7C
1500714474.5,7010,22.5,74388.0,23.91,2.09,2.01,0,*7A
1500714475.76,7011,22.5,74392.8,23.97,2.01,1.29,0,*7C
1500714476.99,7012,22.5,74390.8,23.99,1.17,-0.27,0,*67
1500714478.19,7013,22.5,74392.0,23.99,1.93,-0.03,0,*5C
1500714479.41,7014,22.5,74390.8,23.99,2.51,0.13,0,*4A
1500714480.64,7015,22.5,74390.0,24.01,0.25,-2.95,0,*6D
1500714481.88,7016,22.5,74390.8,24.05,-0.97,-4.21,0,*47
1500714483.12,7017,22.5,74388.8,24.01,-0.69,-4.01,0,*41
1500714484.33,7018,22.5,74388.5,24.01,-0.73,-4.09,0,*4D
1500714485.54,7019,22.5,74388.8,24.05,-0.69,-4.21,0,*49
1500714486.78,7020,22.5,74388.5,24.01,-1.13,-4.41,0,*7D
1500714488.01,7021,22.5,74388.3,24.05,0.09,-2.67,0,*5D
1500714489.25,7022,22.5,74386.8,24.05,0.29,-1.95,0,*62
1500714490.47,7023,22.56,74388.8,24.09,0.47,-1.29,0,*60
1500714491.64,7024,22.5,74384.5,24.13,0.43,-0.69,0,*5D
1500714492.8,7025,22.5,74388.0,24.17,0.43,-0.07,0,*60
1500714493.98,7026,22.5,74384.8,24.21,-0.33,-0.11,0,*7B
1500714495.21,7027,22.5,74386.8,24.23,-0.73,0.21,0,*52
1500714496.41,7028,22.5,74384.3,24.29,-0.73,0.83,0,*5F
1500714497.61,7029,22.56,74390.8,24.29,-1.59,0.63,0,*69
1500714498.8,7030,22.5,74384.8,24.31,-1.33,1.41,0,*55
1500714500.02,7031,22.56,74388.5,24.35,-0.93,2.35,0,*6B
1500714501.22,7032,22.5,74386.0,24.37,-1.83,1.83,0,*54
1500714502.42,7033,22.5,74384.8,24.39,-1.55,2.35,0,*5E
1500714503.64,7034,22.5,74382.8,24.43,-0.69,3.53,0,*6B
1500714504.83,7035,22.5,74384.5,24.47,0.25,4.19,0,*42
1500714506.04,7036,22.5,74384.8,24.53,0.41,4.11,0,*4E
1500714507.24,7037,22.5,74386.8,24.57,-0.61,2.65,0,*61
1500714508.43,7038,22.5,74388.0,24.59,0.09,2.81,0,*79
1500714509.67,7039,22.56,74390.8,24.61,-0.19,1.85,0,*68
1500714510.91,7040,22.5,74386.5,24.65,0.83,2.13,0,*40
1500714512.14,7041,22.5,74384.8,24.65,1.51,1.79,0,*70
1500714513.36,7042,22.5,74390.3,24.69,0.75,0.33,0,*77
1500714514.59,7043,22.56,74390.5,24.75,-0.93,-2.03,0,*42
1500714515.82,7044,22.56,74388.0,24.73,-1.91,-3.95,0,*7E